Hourly Data Report for March 29, 1986

TORONTO LESTER B. PEARSON INT'L A
ONTARIO

43°40'38.000" N
79°37'50.000" W
173.40 m
6158733
71624
YYZ

Download Data

Hourly Data (March 1986)
Hourly Data Report for March 29, 1986
TIME
LST
Temp Definition
°C
Dew Point Definition
°C
Rel Hum Definition
%
Precip. Amount Definition
mm

Wind Dir Definition
10's deg

Wind Spd Definition
km/h
Visibility Definition
km
Stn Press Definition
kPa
Hmdx Definition


Wind Chill Definition


Weather Definition


00:00 11.3 1.8 52   24 41 25.0 99.20     Cloudy
01:00 11.0 2.7 57   24 37 25.0 99.17     Cloudy
02:00 11.1 2.7 56   24 31 25.0 99.13     Cloudy
03:00 10.8 2.7 57   24 31 25.0 99.13     Mostly Cloudy
04:00 10.5 2.0 56   24 28 25.0 99.13     Mostly Cloudy
05:00 10.0 2.4 59   24 19 25.0 99.20     Cloudy
06:00 9.7 2.3 60   25 24 24.1 99.20     Mostly Cloudy
07:00 9.9 2.9 62   25 28 32.2 99.23     Mostly Cloudy
08:00 11.2 2.7 56   25 28 32.2 99.30     Mostly Cloudy
09:00 12.4 3.7 55   25 24 32.2 99.33     Cloudy
10:00 15.3 4.7 49   26 22 32.2 99.40     Cloudy
11:00 17.2 4.3 42   24 19 32.2 99.40     Cloudy
12:00 18.7 4.5 39   22 11 40.2 99.33     Mostly Cloudy
13:00 19.8 4.6 37   21 19 40.2 99.33     Mostly Cloudy
14:00 19.9 5.7 40   21 15 32.2 99.27     Mostly Cloudy
15:00 20.3 6.4 40   22 24 40.2 99.20     Mainly Clear
16:00 20.5 4.9 36   22 33 40.2 99.13     Mostly Cloudy
17:00 20.9 5.7 37   23 26 40.2 99.10     Mainly Clear
18:00 19.9 5.7 40   23 26 40.2 99.10     Mostly Cloudy
19:00 18.6 5.0 41   22 22 25.0 99.10     Mostly Cloudy
20:00 17.7 5.0 43   21 20 25.0 99.13     Mainly Clear
21:00 17.0 5.3 46   22 20 25.0 99.13     Mainly Clear
22:00 14.6 5.3 54   23 19 25.0 99.13     Mainly Clear
23:00 14.2 5.1 54   23 19 25.0 99.07     Clear

Notes on Data Quality.

Legend

  • E = Estimated
  • M = Missing
  • NA = Not Available*
  • [empty] = Indicates an unobserved value
Date modified: